Regional Weather Roundup
Issued by NWS

Home | Current Version | Previous Version | Graphics & Text | Print | Product List | Glossary On
Versions: 1 2 3 4 5 6 7 8 9 10 11 12 13 14 15 16 17 18 19 20 21 22 23 24 25 26 27 28 29 30 31 32 33 34 35 36 37 38 39 40 41 42 43 44 45 46 47 48 49 50
000
ASUS44 KMEG 170700
RWRTN
TENNESSEE HOURLY STATE WEATHER ROUNDUP
NATIONAL WEATHER SERVICE MEMPHIS TN
200 AM CDT WED SEP 17 2014

TNZ002-004-019-021-049-052-054-088>092-170800-
WEST TENNESSEE

CITY           SKY/WX    TMP DP  RH WIND       PRES   REMARKS
MEMPHIS INTL   CLEAR     66  60  81 NE6       30.05S
NWS MEMPHIS      N/A     64 N/A N/A MISG        N/A
JACKSON        CLEAR     62  58  86 NE3       30.06F
DYERSBURG      PTCLDY    61  48  63 NE6       30.08F
PARIS          PTCLDY    52  50  93 N3        30.09S
$$

TNZ008-025-027-028-033-062-065-066-170800-
NORTH MIDDLE TENNESSEE

CITY           SKY/WX    TMP DP  RH WIND       PRES   REMARKS
NASHVILLE      CLEAR     62  55  77 NW5       30.06F
CLARKSVILLE    CLEAR     53  51  93 N3        30.07F
COOKEVILLE     CLOUDY    59  59 100 NE3       30.04F VSB 1/4
CROSSVILLE     PTCLDY    58  55  90 CALM      30.07S FOG
$$

TNZ061-075-076-078-094-096-097-170800-
SOUTH MIDDLE TENNESSEE

CITY           SKY/WX    TMP DP  RH WIND       PRES   REMARKS
SHELBYVILLE    CLOUDY    63  61  94 N3        30.06S
$$

TNZ017-018-042-046-047-170800-
NORTHEAST TENNESSEE

CITY           SKY/WX    TMP DP  RH WIND       PRES   REMARKS
TRI CITIES     CLOUDY    62  56  80 CALM      30.03F
$$

TNZ012-013-036-069-073-074-170800-
CENTRAL EAST TENNESSEE

CITY           SKY/WX    TMP DP  RH WIND       PRES   REMARKS
KNOXVILLE      CLOUDY    63  59  87 N5        30.01F
OAK RIDGE      PTCLDY    60  58  92 CALM      30.04F
$$

TNZ083-085-099-170800-
SOUTHEAST TENNESSEE

CITY           SKY/WX    TMP DP  RH WIND       PRES   REMARKS
CHATTANOOGA    CLEAR     66  61  84 NW5       30.02F
$$

SKY/WX REPORTED AS FAIR MEANS FEW OR NO CLOUDS BELOW
12 THOUSAND FEET.




USA.gov is the U.S. government's official web portal to all federal, state and local government web resources and services.